Location: Unspecified
(35.6961°N, 0.0000°E)
Time: 22:56:11
(UTC+00:00)

Vanguard 2 Rocket - Pass Details

Date: 28 May 2019
Orbit: 554 x 3326 km, 32.9° (Epoch: 15 June)

Event Time Altitude Azimuth Distance (km) Brightness Sun altitude
Rises 06:51:34 0° 266° (W) 7,251 10.9 23.0°
Reaches altitude 10° 06:56:44 10° 265° (W) 6,074 10.6 24.0°
Maximum altitude 07:14:55 80° 183° (S) 2,324 9.4 27.7°
Drops below altitude 10° 07:25:29 10° 98° (E) 3,765 11.5 29.8°
Sets 07:27:55 0° 97° (E) 4,460 11.5 30.3°
